Location: Ebersheim
(48.3033°N, 7.4991°E)
Time: 04:36:44
(UTC+00:00)

Ariane Rocket - Pass Details

Date: 27 February 2020
Orbit: 759 x 771 km, 98.7° (Epoch: 02 April)

Event Time Altitude Azimuth Distance (km) Brightness Sun altitude
Rises 19:25:44 0° 187° (S) 3,231 6.2 -23.2°
Reaches altitude 10° 19:28:11 10° 195° (SSW) 2,309 5.5 -23.6°
Maximum altitude 19:32:54 37° 263° (W) 1,182 4.4 -24.3°
Drops below altitude 10° 19:37:38 10° 331° (NNW) 2,325 6.1 -25.1°
Sets 19:40:08 0° 339° (NNW) 3,255 6.8 -25.5°
